Luverne, MN

2:17 AM CST on December 13, 2019 (GMT -0600)
Luverne

Weather History for KLYV - October, 2019

Change the Weather History Date:

Tuesday, October 22, 2019

  Actual Average (WUND) Record (WUND)
Temperature  
Mean Temperature 41 °F -  
Max Temperature 50 °F - - (-1)
Min Temperature 32 °F - - (-1)
Degree Days  
Heating Degree Days 24    
Moisture  
Dew Point 30 °F    
Average Humidity 70    
Maximum Humidity 93    
Minimum Humidity 43    
Precipitation  
Precipitation 0.00 in - - ()
Sea Level Pressure  
Sea Level Pressure 29.74 in    
Wind  
Wind Speed 21 mph (WNW)    
Max Wind Speed 30 mph    
Max Gust Speed 40 mph    
Visibility 10 miles    
Events      
Averages and records for this station are not official NWS values.
T = Trace of Precipitation, MM = Missing Value Source: NWS Daily Summary

Daily Weather History Graph

Daily Weather History Graph

Search for Another Location

Airport or City:

Astronomy

Oct. 22, 2019 Rise Set
Actual Time 7:47 AM CDT 6:30 PM CDT
Civil Twilight 7:18 AM CDT 6:59 PM CDT
Nautical Twilight 6:44 AM CDT 7:33 PM CDT
Astronomical Twilight 6:11 AM CDT 8:06 PM CDT
Moon 12:42 AM CDT (10/22) 3:55 PM CDT (10/22)
Length of Visible Light 11h 41m
Length of Day
10h 43m
Last Quarter, 37% of the Moon is Illuminated
Oct 22
Last Quarter
Oct 27
New
Nov 4
First Quarter
Nov 12
Full
Nov 19
Last Quarter

Hourly Weather History & Observations

Time (CDT) Temp. Windchill Dew Point Humidity Pressure Visibility Wind Dir Wind Speed Gust Speed Precip Events Conditions
12:16 AM 41.0 °F 30.0 °F 35.6 °F 81% 29.57 in 10.0 mi NW 28.8 mph 40.3 mph N/A   Overcast
12:36 AM 41.0 °F 29.8 °F 35.6 °F 81% 29.58 in 10.0 mi NW 29.9 mph 38.0 mph N/A   Overcast
12:56 AM 41.0 °F 30.9 °F 33.8 °F 76% 29.59 in 10.0 mi NW 24.2 mph 38.0 mph N/A   Overcast
1:18 AM 41.0 °F 30.5 °F 33.8 °F 76% 29.60 in 10.0 mi NW 26.5 mph 38.0 mph N/A   Overcast
1:37 AM 41.0 °F 29.8 °F 33.8 °F 76% 29.60 in 10.0 mi NW 29.9 mph 39.1 mph N/A   Overcast
1:56 AM 39.2 °F 28.0 °F 33.8 °F 81% 29.61 in 10.0 mi NW 26.5 mph 36.8 mph N/A   Overcast
2:16 AM 39.2 °F 28.3 °F 32.0 °F 75% 29.62 in 10.0 mi NW 25.3 mph 34.5 mph N/A   Overcast
2:35 AM 39.2 °F 28.7 °F 32.0 °F 75% 29.63 in 10.0 mi NW 23.0 mph 31.1 mph N/A   Overcast
2:57 AM 39.2 °F 28.3 °F 32.0 °F 75% 29.63 in 10.0 mi NW 25.3 mph 36.8 mph N/A   Overcast
3:15 AM 37.4 °F 26.6 °F 32.0 °F 81% 29.64 in 10.0 mi NW 21.9 mph 34.5 mph N/A   Overcast
3:36 AM 37.4 °F 27.5 °F 32.0 °F 81% 29.64 in 10.0 mi WNW 18.4 mph 28.8 mph N/A   Overcast
3:56 AM 37.4 °F 26.4 °F 32.0 °F 81% 29.64 in 10.0 mi NW 23.0 mph 29.9 mph N/A   Overcast
4:19 AM 37.4 °F 26.1 °F 32.0 °F 81% 29.65 in 10.0 mi WNW 24.2 mph 32.2 mph N/A   Overcast
4:37 AM 37.4 °F 26.6 °F 32.0 °F 81% 29.66 in 10.0 mi WNW 21.9 mph 32.2 mph N/A   Overcast
4:56 AM 37.4 °F 26.4 °F 32.0 °F 81% 29.66 in 10.0 mi WNW 23.0 mph 38.0 mph N/A   Overcast
5:15 AM 37.4 °F 26.4 °F 32.0 °F 81% 29.68 in 10.0 mi WNW 23.0 mph 35.7 mph N/A   Overcast
5:38 AM 35.6 °F 24.0 °F 32.0 °F 87% 29.68 in 10.0 mi WNW 23.0 mph 34.5 mph N/A   Overcast
5:57 AM 35.6 °F 23.7 °F 32.0 °F 87% 29.69 in 10.0 mi WNW 24.2 mph 34.5 mph N/A   Overcast
6:36 AM 35.6 °F 24.5 °F 32.0 °F 87% 29.70 in 10.0 mi WNW 20.7 mph 31.1 mph N/A   Scattered Clouds
6:55 AM 35.6 °F 24.0 °F 30.2 °F 81% 29.71 in 10.0 mi WNW 23.0 mph 33.4 mph N/A   Scattered Clouds
6:59 AM 35.6 °F 24.2 °F 30.2 °F 81% 29.71 in 10.0 mi WNW 21.9 mph 33.4 mph N/A   Scattered Clouds
7:18 AM 33.8 °F 22.2 °F 30.2 °F 87% 29.72 in 10.0 mi WNW 20.7 mph 29.9 mph N/A   Scattered Clouds
7:36 AM 33.8 °F 23.2 °F 30.2 °F 87% 29.72 in 10.0 mi WNW 17.3 mph 26.5 mph N/A   Clear
7:56 AM 33.8 °F 22.8 °F 28.4 °F 81% 29.72 in 10.0 mi WNW 18.4 mph 28.8 mph N/A   Clear
8:16 AM 33.8 °F 21.3 °F 28.4 °F 81% 29.73 in 10.0 mi WNW 24.2 mph 29.9 mph N/A   Clear
8:38 AM 33.8 °F 21.9 °F 28.4 °F 81% 29.73 in 10.0 mi WNW 21.9 mph 31.1 mph N/A   Clear
8:57 AM 35.6 °F 24.2 °F 28.4 °F 75% 29.74 in 10.0 mi WNW 21.9 mph 32.2 mph N/A   Clear
9:16 AM 35.6 °F 23.2 °F 28.4 °F 75% 29.75 in 10.0 mi WNW 26.5 mph 32.2 mph N/A   Clear
9:36 AM 35.6 °F 24.2 °F 28.4 °F 75% 29.75 in 10.0 mi WNW 21.9 mph 32.2 mph N/A   Clear
10:17 AM 39.2 °F 29.0 °F 28.4 °F 65% 29.77 in 10.0 mi NW 21.9 mph 32.2 mph N/A   Clear
10:56 AM 41.0 °F 31.6 °F 28.4 °F 61% 29.77 in 10.0 mi NW 20.7 mph 32.2 mph N/A   Clear
11:16 AM 42.8 °F 33.5 °F 28.4 °F 57% 29.78 in 10.0 mi NW 23.0 mph 34.5 mph N/A   Clear
11:38 AM 42.8 °F 32.7 °F 28.4 °F 57% 29.78 in 10.0 mi NW 27.6 mph 36.8 mph N/A   Clear
11:56 AM 44.6 °F 35.1 °F 28.4 °F 53% 29.79 in 10.0 mi NW 27.6 mph 39.1 mph N/A   Clear
12:16 PM 44.6 °F 36.1 °F 30.2 °F 57% 29.79 in 10.0 mi NW 21.9 mph 31.1 mph N/A   Clear
12:35 PM 44.6 °F 35.9 °F 30.2 °F 57% 29.79 in 10.0 mi NW 23.0 mph 33.4 mph N/A   Clear
12:55 PM 44.6 °F 36.4 °F 28.4 °F 53% 29.79 in 10.0 mi NW 20.7 mph 34.5 mph N/A   Clear
12:59 PM 44.6 °F 35.9 °F 28.4 °F 53% 29.79 in 10.0 mi NW 23.0 mph 33.4 mph N/A   Clear
1:17 PM 44.6 °F 35.7 °F 28.4 °F 53% 29.79 in 10.0 mi NW 24.2 mph 35.7 mph N/A   Scattered Clouds
1:36 PM 46.4 °F 38.3 °F 30.2 °F 53% 29.78 in 10.0 mi NW 23.0 mph 36.8 mph N/A   Clear
1:56 PM 46.4 °F 37.4 °F 28.4 °F 50% 29.78 in 10.0 mi NW 28.8 mph 35.7 mph N/A   Scattered Clouds
2:15 PM 46.4 °F 39.0 °F 28.4 °F 50% 29.78 in 10.0 mi NW 19.6 mph 33.4 mph N/A   Scattered Clouds
2:20 PM 46.4 °F 37.5 °F 30.2 °F 53% 29.78 in 10.0 mi WNW 27.6 mph 35.7 mph N/A   Scattered Clouds
2:37 PM 46.4 °F 37.9 °F 28.4 °F 50% 29.78 in 10.0 mi NW 25.3 mph 38.0 mph N/A   Scattered Clouds
2:55 PM 46.4 °F 37.9 °F 28.4 °F 50% 29.78 in 10.0 mi WNW 25.3 mph 35.7 mph N/A   Clear
3:15 PM 46.4 °F 38.3 °F 28.4 °F 50% 29.78 in 10.0 mi NW 23.0 mph 32.2 mph N/A   Clear
3:36 PM 50.0 °F - 28.4 °F 43% 29.79 in 10.0 mi WNW 23.0 mph 31.1 mph N/A   Scattered Clouds
3:59 PM 46.4 °F 38.7 °F 28.4 °F 50% 29.79 in 10.0 mi WNW 20.7 mph 31.1 mph N/A   Scattered Clouds
4:16 PM 46.4 °F 38.7 °F 28.4 °F 50% 29.79 in 10.0 mi NW 20.7 mph 26.5 mph N/A   Scattered Clouds
4:36 PM 48.2 °F - 26.6 °F 43% 29.79 in 10.0 mi NW 19.6 mph 27.6 mph N/A   Clear
4:56 PM 48.2 °F - 26.6 °F 43% 29.79 in 10.0 mi NW 18.4 mph 27.6 mph N/A   Scattered Clouds
5:15 PM 46.4 °F 39.8 °F 26.6 °F 46% 29.79 in 10.0 mi NW 16.1 mph 27.6 mph N/A   Scattered Clouds
5:19 PM 46.4 °F 39.0 °F 26.6 °F 46% 29.79 in 10.0 mi WNW 19.6 mph 26.5 mph N/A   Scattered Clouds
5:38 PM 46.4 °F 41.1 °F 28.4 °F 50% 29.79 in 10.0 mi WNW 11.5 mph - N/A   Scattered Clouds
5:55 PM 44.6 °F 39.7 °F 30.2 °F 57% 29.80 in 10.0 mi WNW 9.2 mph 16.1 mph N/A   Clear
6:16 PM 44.6 °F 38.8 °F 28.4 °F 53% 29.80 in 10.0 mi WNW 11.5 mph - N/A   Clear
6:35 PM 42.8 °F 36.6 °F 28.4 °F 57% 29.80 in 10.0 mi WNW 11.5 mph - N/A   Clear
6:59 PM 41.0 °F 36.4 °F 28.4 °F 61% 29.80 in 10.0 mi West 6.9 mph - N/A   Clear
7:16 PM 41.0 °F 35.8 °F 30.2 °F 65% 29.80 in 10.0 mi West 8.1 mph - N/A   Clear
7:35 PM 41.0 °F 36.4 °F 30.2 °F 65% 29.80 in 10.0 mi West 6.9 mph - N/A   Clear
7:56 PM 37.4 °F 31.4 °F 30.2 °F 75% 29.80 in 10.0 mi West 8.1 mph - N/A   Clear
8:15 PM 37.4 °F 32.1 °F 30.2 °F 75% 29.80 in 10.0 mi West 6.9 mph - N/A   Clear
8:19 PM 37.4 °F 33.8 °F 30.2 °F 75% 29.80 in 10.0 mi WNW 4.6 mph - N/A   Clear
8:37 PM 35.6 °F 32.8 °F 30.2 °F 81% 29.81 in 10.0 mi WNW 3.5 mph - N/A   Clear
8:56 PM 35.6 °F 31.7 °F 30.2 °F 81% 29.81 in 10.0 mi NW 4.6 mph - N/A   Clear
9:15 PM 33.8 °F 28.6 °F 30.2 °F 87% 29.81 in 10.0 mi West 5.8 mph - N/A   Clear
9:36 PM 35.6 °F 31.7 °F 30.2 °F 81% 29.81 in 10.0 mi West 4.6 mph - N/A   Clear
9:59 PM 32.0 °F 28.7 °F 28.4 °F 87% 29.80 in 10.0 mi West 3.5 mph - N/A   Clear
10:16 PM 33.8 °F - 30.2 °F 87% 29.80 in 10.0 mi Calm Calm - N/A   Clear
10:36 PM 32.0 °F - 28.4 °F 87% 29.81 in 10.0 mi Calm Calm - N/A   Clear
10:56 PM 33.8 °F - 32.0 °F 93% 29.81 in 10.0 mi Calm Calm - N/A   Clear
11:15 PM 33.8 °F - 30.2 °F 87% 29.81 in 10.0 mi Calm Calm - N/A   Clear
11:19 PM 33.8 °F - 30.2 °F 87% 29.81 in 10.0 mi Calm Calm - N/A   Clear
11:37 PM 32.0 °F - 30.2 °F 93% 29.81 in 10.0 mi Calm Calm - N/A   Clear
11:55 PM 33.8 °F - 32.0 °F 93% 29.80 in 10.0 mi Calm Calm - N/A   Clear